This is the latest recevied weather packets stored in our database for station/object KN6ETB-1. If no packets are shown the sender has not sent any weather packets the latest 10 day(s).
| Time | Temp. | Humidity | Pressure | Rain* | Wind** | Luminosity | Snow |
|---|---|---|---|---|---|---|---|
| 1777578781 | 24.44° C | 53% | 1011.5 hPa | 0 mm | - | 709 W/m² | - |
| 1777578476 | 24.44° C | 51% | 1011.3 hPa | 0 mm | - | 722 W/m² | - |
| 1777578172 | 24.44° C | 52% | 1011.3 hPa | 0 mm | - | 724 W/m² | - |
| 1777577867 | 24.44° C | 53% | 1011.4 hPa | 0 mm | - | 754 W/m² | - |
| 1777577563 | 23.89° C | 53% | 1011.4 hPa | 0 mm | - | 735 W/m² | - |
| 1777577261 | 24.44° C | 53% | 1011.6 hPa | 0 mm | - | 754 W/m² | - |
| 1777576956 | 24.44° C | 53% | 1011.6 hPa | 0 mm | - | 745 W/m² | - |
| 1777576652 | 23.33° C | 54% | 1011.8 hPa | 0 mm | - | 738 W/m² | - |
| 1777576347 | 23.89° C | 55% | 1011.8 hPa | 0 mm | - | 721 W/m² | - |
| 1777576044 | 23.89° C | 53% | 1011.9 hPa | 0 mm | - | 753 W/m² | - |
| 1777575740 | 23.33° C | 55% | 1011.8 hPa | 0 mm | - | 792 W/m² | - |
| 1777575436 | 23.33° C | 55% | 1011.8 hPa | 0 mm | - | 789 W/m² | - |
| 1777575132 | 23.33° C | 56% | 1011.9 hPa | 0 mm | - | 793 W/m² | - |
| 1777574828 | 22.78° C | 55% | 1012 hPa | 0 mm | - | 790 W/m² | - |
| 1777574526 | 22.78° C | 56% | 1012.2 hPa | 0 mm | - | 805 W/m² | - |
| 1777574221 | 23.33° C | 55% | 1012 hPa | 0 mm | - | 812 W/m² | - |
| 1777573916 | 22.78° C | 56% | 1012.1 hPa | 0 mm | - | 821 W/m² | - |
| 1777573611 | 23.33° C | 54% | 1012 hPa | 0 mm | - | 811 W/m² | - |
| 1777573308 | 22.22° C | 56% | 1011.9 hPa | 0 mm | - | 781 W/m² | - |
| 1777573004 | 21.67° C | 57% | 1012.1 hPa | 0 mm | - | 799 W/m² | - |
| 1777572700 | 22.22° C | 56% | 1012 hPa | 0 mm | - | 819 W/m² | - |
| 1777572400 | 22.78° C | 56% | 1012 hPa | 0 mm | - | 827 W/m² | - |
| 1777572097 | 22.22° C | 56% | 1012 hPa | 0 mm | - | 838 W/m² | - |
| 1777571791 | 21.67° C | 57% | 1012.1 hPa | 0 mm | - | 815 W/m² | - |
| 1777571488 | 21.11° C | 58% | 1011.9 hPa | 0 mm | - | 801 W/m² | - |
* Rain latest hour (hover to see other rain measurements)
** Current wind speed in m/s (hover to see current wind gust speed)